EHI
0 0 0 1 1 1 0 0 0 0 0 0 0 0 0 0 0 1 4 9 15 22 25 21 19 21 27 32 37 41 38 30 18 9 5 3 3 2 1 0 0 0 0 0 0 0 0 0 0
0 0 0 0 0 0 0 0 0 0 0 0 0 0 0 0 0 2 8 14 20 24 24 22 21 23 26 30 34 36 32 25 16 8 4 3 3 2 1 0 0 0 0 0 0 0 0 0 0
0 0 0 0 0 0 0 0 0 0 0 0 0 0 1 1 1 5 15 25 27 27 26 26 25 24 26 28 29 27 23 18 12 7 4 3 2 1 0 0 0 0 0 0 0 0 0 0 0
0 0 0 0 0 0 0 0 0 0 0 0 1 2 4 6 7 12 25 34 33 28 27 28 26 24 25 26 25 21 16 12 8 5 3 3 1 0 0 0 0 0 0 0 1 1 0 0 0
0 0 0 0 0 0 0 0 0 0 0 0 1 3 10 16 19 24 34 37 32 25 24 28 27 23 23 25 24 19 14 10 7 5 3 2 1 0 0 0 0 0 0 0 1 2 1 0 0
0 0 0 0 0 0 0 0 0 0 0 0 1 6 18 30 33 35 38 34 25 19 21 25 23 18 19 21 21 19 15 12 8 5 3 1 1 1 0 0 0 0 0 0 2 2 1 0 0
0 0 0 0 0 0 0 0 0 0 0 0 1 8 24 42 46 43 39 31 20 15 18 20 17 13 12 14 16 17 17 14 10 5 2 1 1 1 0 0 0 0 0 0 1 2 2 1 0
0 0 0 0 0 0 0 0 0 0 1 1 3 11 31 55 60 54 46 35 23 16 15 16 14 11 9 8 10 14 16 14 9 5 2 1 0 0 0 0 0 0 0 0 1 1 1 1 0
0 0 0 0 0 0 0 0 0 1 2 4 9 22 47 69 75 69 61 49 36 24 18 16 16 13 9 7 8 11 12 10 7 4 2 0 0 0 0 0 0 0 0 0 0 0 0 0 0
0 0 0 0 0 0 0 0 0 1 3 8 18 38 64 81 84 82 75 65 51 37 24 19 19 18 13 11 11 11 10 8 6 4 2 1 1 0 0 1 0 0 0 0 0 0 0 0 0
0 0 0 0 0 0 0 0 0 1 2 8 24 50 74 85 86 84 81 73 61 45 30 23 23 23 22 21 19 17 13 9 7 5 2 2 3 2 2 1 1 0 0 0 0 0 0 0 0
0 0 0 0 0 0 0 0 0 1 2 9 26 54 76 83 83 82 79 72 60 49 37 30 31 32 34 33 27 21 16 11 8 7 5 4 5 5 4 3 2 0 0 0 0 0 0 0 0
0 0 0 0 0 0 0 0 0 1 6 14 31 53 68 74 75 76 73 64 56 49 42 39 41 43 43 41 32 23 17 12 10 10 8 6 7 7 6 5 2 0 0 0 0 0 0 1 1
0 0 0 0 0 0 0 0 0 3 10 20 32 47 56 61 65 66 64 59 53 48 45 46 48 47 46 43 34 24 17 13 11 11 11 9 9 8 6 3 1 0 0 0 0 0 0 1 2
0 0 0 0 0 0 0 0 2 5 12 19 29 40 48 54 57 57 56 53 48 43 43 45 45 44 43 41 34 25 18 13 12 12 13 11 10 10 7 3 1 0 0 1 1 0 0 1 1
0 0 0 0 0 0 0 1 4 7 11 16 25 38 46 50 50 50 49 44 38 34 35 35 35 36 38 40 37 28 21 16 14 13 13 12 11 9 7 3 2 1 1 1 1 0 1 1 1
0 0 0 0 0 0 0 1 5 8 9 14 25 36 42 45 45 44 42 35 29 27 28 27 27 30 35 39 39 32 26 22 18 16 15 12 9 7 5 4 4 3 2 1 1 1 1 1 1
0 0 0 0 0 0 0 1 3 6 7 12 23 32 36 37 40 40 36 30 25 25 28 26 25 28 33 38 38 32 26 23 21 19 16 11 8 6 4 5 6 4 2 2 2 2 1 0 0
0 0 0 0 0 0 0 0 3 5 6 9 18 26 29 29 31 34 32 28 27 30 31 31 29 29 32 35 36 32 25 22 21 19 16 11 7 6 6 6 6 6 5 4 4 3 1 0 0
0 0 0 0 0 0 0 0 2 4 5 7 13 20 23 24 26 29 29 28 31 34 33 31 31 30 28 29 31 30 27 25 24 21 16 11 7 6 5 5 5 6 7 6 5 3 1 0 0
0 0 0 0 0 0 0 0 1 4 5 6 10 14 16 18 22 24 24 26 30 31 28 26 27 28 25 23 23 24 25 24 24 23 18 13 10 7 4 3 3 5 6 6 5 4 2 0 0
0 0 0 0 0 0 0 0 1 3 4 5 7 9 10 11 15 17 19 22 24 23 19 18 21 24 22 18 15 14 17 20 22 24 21 18 15 9 5 3 2 4 5 4 3 3 2 1 1
0 0 0 0 0 0 0 0 0 1 2 4 6 8 8 8 10 13 16 18 18 16 13 12 15 17 15 12 10 9 12 15 19 20 20 20 17 11 6 4 3 4 4 3 1 1 2 2 2
0 0 0 0 0 0 0 0 0 0 1 3 5 7 10 10 10 12 15 16 15 12 9 8 9 10 9 7 6 7 9 12 13 13 14 15 15 11 7 5 5 6 5 4 3 2 2 2 2
0 0 0 0 0 0 0 0 0 0 0 1 2 6 10 12 11 12 13 14 12 8 6 5 6 6 5 4 4 5 7 9 8 7 8 9 10 9 7 6 6 7 6 5 4 4 4 4 4
0 0 0 0 0 0 0 0 0 0 1 1 1 5 10 13 12 11 11 11 8 4 2 3 3 3 3 4 4 4 7 8 6 5 5 5 5 6 7 6 5 5 5 5 5 5 5 6 7
0 0 0 0 0 0 0 0 0 1 2 2 2 6 11 12 11 10 9 7 4 1 1 2 2 2 2 3 3 3 5 6 6 5 4 3 3 4 6 6 5 4 5 6 8 8 7 7 7
0 0 0 0 0 0 0 0 1 4 4 3 4 7 10 9 7 7 7 6 3 1 0 1 2 2 3 2 1 1 2 3 4 4 3 3 4 5 6 7 7 7 9 12 12 10 8 8 7
0 0 0 0 0 0 0 0 2 5 6 5 5 7 8 5 3 3 5 6 4 2 0 0 1 1 1 1 0 1 1 1 3 3 3 5 6 8 9 9 11 12 13 16 15 10 7 7 7
0 0 0 0 0 0 0 1 3 6 7 6 6 6 5 3 1 2 5 6 4 1 0 0 0 0 0 0 1 1 1 1 2 3 4 6 9 10 11 13 14 14 16 17 15 10 5 5 6
Wind_Speed
11 9 6 5 7 5 2 3 1 2 3 3 4 2 1 1 2 5 7 18 19 20 20 19 16 16 16 16 15 15 15 15 15 14 13 13 12 12 11 11 11 10 11 11 11 11 12 11 11
9 7 6 7 7 2 4 3 2 2 3 5 5 3 2 2 5 7 10 18 21 21 20 18 18 17 17 16 15 15 15 15 15 14 13 13 12 12 11 11 11 11 11 11 11 11 11 11 11
8 7 7 6 4 1 4 4 3 3 5 5 5 2 0 3 6 7 12 20 20 19 19 19 19 18 17 16 15 15 15 15 14 14 13 12 12 12 11 11 11 11 11 11 11 11 11 11 11
6 7 6 7 3 1 1 2 3 5 6 5 5 4 4 4 4 8 17 21 21 19 19 20 19 18 17 16 15 15 15 14 14 13 13 12 12 12 11 11 11 11 11 11 11 11 10 10 10
7 6 8 6 3 2 1 1 3 5 5 6 6 3 5 4 5 13 19 21 20 19 18 21 19 18 17 16 16 15 15 14 13 13 13 12 12 12 11 11 11 11 11 11 10 10 9 9 9
6 6 7 4 4 2 1 2 5 5 4 4 5 4 4 5 9 16 19 19 19 19 19 20 19 18 17 16 16 15 15 14 13 13 13 12 12 12 11 11 11 11 10 10 10 9 8 8 7
8 6 5 2 3 3 2 1 5 4 5 5 4 3 6 8 11 16 18 17 18 18 18 18 18 17 17 16 15 15 14 14 13 13 12 12 11 11 11 11 11 10 10 9 9 8 7 7 7
6 6 6 4 3 2 3 2 2 4 3 3 5 4 6 11 14 17 17 16 16 16 17 17 17 16 16 15 15 15 14 13 13 12 12 12 12 11 10 11 10 10 9 9 8 7 7 6 7
7 8 5 2 2 2 2 2 2 3 4 5 4 0 7 16 17 17 17 16 16 15 15 16 16 15 15 14 15 15 14 13 13 12 12 11 10 10 9 11 10 9 8 8 7 7 6 6 8
8 7 2 2 3 3 2 4 3 5 8 7 7 7 12 18 19 19 19 19 19 17 16 14 15 15 14 12 12 10 11 11 9 9 10 7 6 5 7 11 8 8 8 7 6 5 6 8 7
8 6 3 4 5 6 6 5 5 7 7 8 9 13 16 19 19 19 19 19 18 17 16 14 13 13 13 9 9 7 6 7 8 9 8 5 6 5 6 6 7 7 8 6 7 7 4 2 3
8 7 8 7 6 7 7 5 6 9 5 2 4 12 18 20 20 20 19 18 16 17 17 15 14 12 11 10 8 8 7 7 7 8 8 7 4 4 4 3 5 5 4 3 3 2 3 2 3
11 8 7 8 9 8 8 7 7 6 3 1 5 12 17 18 18 17 16 16 16 16 16 15 14 13 11 9 7 8 7 8 7 7 7 6 5 5 5 3 3 3 3 5 3 2 3 2 3
6 8 10 9 7 6 7 7 7 5 2 4 8 11 14 16 16 15 15 16 15 16 15 14 14 13 12 9 8 7 7 6 7 7 8 7 5 4 5 5 4 3 3 2 2 3 3 2 2
7 10 10 7 5 4 6 9 6 3 4 6 8 9 11 13 14 15 16 16 15 15 14 14 14 13 13 12 11 8 7 8 7 6 7 7 6 5 4 4 5 4 3 4 3 3 3 3 3
9 11 10 5 4 3 8 7 2 3 5 6 7 8 10 11 14 13 14 14 14 14 14 14 13 14 13 11 10 7 7 8 7 7 7 8 7 6 5 4 4 4 4 3 3 3 3 2 2
11 10 8 4 4 3 8 8 0 3 6 7 7 8 9 10 12 12 13 14 14 14 15 14 13 13 13 12 9 8 6 7 7 6 6 7 7 7 5 4 4 5 4 3 4 3 2 2 2
7 7 7 6 2 5 8 8 3 4 6 7 7 8 9 10 12 12 13 14 14 14 15 15 14 13 12 10 8 6 7 7 7 6 6 8 7 7 6 5 5 5 4 3 2 3 2 1 2
6 8 8 6 2 6 8 8 4 4 6 7 7 7 8 9 10 10 12 13 14 14 14 15 15 13 11 9 9 9 9 8 7 7 8 9 8 8 6 5 5 5 4 4 5 4 5 3 2
9 10 9 5 2 6 8 9 4 5 6 6 7 7 8 8 9 10 11 12 13 14 14 14 14 13 13 10 8 7 8 8 7 6 7 9 8 8 8 6 6 6 4 5 5 4 3 3 3
11 10 8 8 6 7 8 9 6 6 5 6 7 7 8 9 10 11 11 12 12 13 14 13 14 14 14 12 9 7 6 6 6 7 7 8 8 8 7 8 7 6 7 6 6 6 6 4 4
11 7 8 9 10 6 5 8 3 5 6 7 8 8 9 9 9 10 11 12 12 13 13 13 13 13 13 13 12 12 10 9 9 7 7 8 8 8 8 8 7 7 6 5 7 7 5 5 5
9 5 8 9 10 11 7 9 3 5 5 6 8 8 8 9 9 10 10 11 11 12 12 12 12 12 12 13 13 12 10 8 7 7 8 8 8 8 8 8 7 7 6 6 5 4 6 5 5
7 7 7 9 10 11 5 8 5 1 2 2 6 8 8 9 9 9 9 9 10 10 11 12 12 12 12 13 13 13 11 10 9 9 9 8 7 7 9 8 7 7 6 6 6 5 7 5 4
11 10 8 9 8 6 2 7 4 2 1 1 4 7 9 9 10 10 10 9 10 11 12 12 12 12 12 13 13 13 12 11 11 10 9 8 7 7 8 8 7 7 6 6 6 6 5 5 5
12 12 10 7 7 5 4 6 2 3 2 1 3 6 9 10 10 10 10 10 10 11 11 12 12 12 12 13 12 11 11 9 8 9 8 8 7 7 8 9 8 8 8 7 6 6 6 5 5
10 11 10 10 10 9 5 3 2 4 4 4 5 7 9 10 10 10 11 11 10 10 11 11 12 12 12 13 12 11 11 10 9 9 8 7 6 7 9 10 9 9 8 7 7 5 6 5 6
10 8 6 9 9 9 7 6 2 3 5 6 6 7 8 9 10 10 10 11 10 10 10 11 11 11 11 12 11 9 10 10 9 9 9 8 8 8 9 10 10 9 9 9 8 7 6 6 6
10 10 9 9 8 9 8 2 4 2 3 5 6 7 8 9 10 10 10 11 11 10 10 10 10 10 10 11 10 10 9 10 9 9 9 9 8 9 10 10 10 10 10 9 8 8 7 8 7
9 10 10 9 9 9 10 3 6 3 3 3 4 5 7 8 8 10 11 11 11 11 10 10 10 10 10 10 10 10 9 10 10 10 9 9 9 9 9 9 10 10 10 9 10 10 9 9 9
Wind_Direction
178 188 212 234 237 227 95 91 67 128 133 111 143 171 196 128 5 59 110 149 148 148 144 151 151 149 145 142 141 139 138 138 137 137 136 134 132 128 125 121 116 112 108 105 105 104 104 104 104
178 191 224 238 253 196 114 109 130 98 93 133 159 177 184 110 58 96 139 148 150 148 148 153 150 150 147 144 142 140 139 139 138 137 136 134 131 128 125 120 116 113 109 106 106 106 105 104 103
182 224 254 249 247 310 84 108 110 105 142 170 167 176 319 83 114 134 145 151 152 148 148 145 152 151 148 146 144 141 140 140 139 137 136 134 131 127 123 119 115 112 110 107 105 105 105 105 104
202 220 235 248 227 77 4 82 140 159 160 184 182 150 113 65 117 138 148 155 152 150 151 146 155 152 150 148 145 142 142 141 139 138 137 133 130 127 124 119 114 112 110 107 105 105 105 107 108
234 246 234 219 196 128 242 301 203 191 171 180 198 161 121 103 122 142 152 157 155 155 152 148 156 154 152 150 147 145 144 143 141 139 136 133 129 126 123 119 115 112 110 108 106 106 107 110 113
226 240 239 198 140 144 169 198 210 204 180 173 198 191 111 120 145 150 155 159 158 156 152 147 157 156 155 153 150 148 146 144 141 138 135 131 128 126 123 122 118 115 113 111 108 107 106 108 114
255 251 253 223 158 154 97 179 214 210 201 191 201 187 127 143 148 153 156 160 160 159 153 153 159 159 157 155 153 151 148 145 142 138 136 132 129 127 125 123 121 119 117 114 112 108 103 104 112
269 263 225 203 196 129 101 196 215 232 200 161 205 209 148 149 151 153 156 161 163 163 160 159 162 161 162 160 157 154 151 148 144 141 139 134 132 131 131 135 122 121 120 119 116 110 106 107 112
248 247 215 184 202 93 94 236 189 217 182 186 207 196 108 142 152 155 159 164 167 169 166 167 163 164 167 162 155 159 155 151 153 151 146 158 157 146 155 116 122 125 123 121 117 115 119 134 131
234 245 214 1 316 324 305 271 224 204 209 202 185 143 135 151 160 165 169 170 171 173 174 172 167 165 168 163 157 164 164 159 171 153 161 167 139 140 125 118 129 130 129 131 124 133 175 211 154
229 256 295 280 292 299 281 259 226 235 231 217 200 169 159 164 169 175 176 177 174 174 176 173 170 168 170 161 162 164 161 160 165 156 162 149 153 151 146 149 151 153 164 162 150 186 197 169 94
239 253 267 276 293 283 275 261 235 245 270 327 201 169 169 176 179 182 180 178 177 178 178 175 171 172 173 167 164 166 164 166 164 158 171 160 166 164 149 158 150 163 161 152 175 179 151 138 139
235 258 265 270 274 276 269 254 253 251 259 131 158 164 178 184 185 186 181 179 179 179 180 177 173 174 173 168 175 171 169 168 162 160 170 171 170 173 156 149 158 166 152 166 186 162 141 167 163
246 264 271 269 264 248 253 247 239 248 206 164 167 175 184 188 188 183 179 180 181 181 180 176 177 176 174 174 176 170 171 167 168 169 167 181 177 165 165 167 168 167 176 156 174 151 167 180 140
260 260 248 229 236 229 255 239 228 230 180 177 179 181 183 187 187 187 183 183 184 184 181 178 179 177 180 180 180 175 173 173 173 166 166 178 181 171 182 172 181 170 159 160 182 166 179 180 172
235 238 236 192 221 211 250 265 128 173 194 195 189 183 183 185 191 190 185 185 187 186 183 182 183 180 184 183 182 178 180 172 175 170 171 180 182 181 191 184 176 161 173 175 167 196 193 176 187
218 233 243 214 194 241 252 278 172 181 206 205 197 189 187 185 191 188 186 186 188 187 183 182 184 183 184 180 179 180 177 177 178 176 176 178 186 186 194 190 158 179 179 183 196 159 206 182 202
226 244 247 255 205 263 264 273 267 203 221 217 203 194 190 191 190 186 185 185 186 186 183 183 183 184 182 177 173 176 180 183 184 181 179 180 187 190 194 186 172 192 182 185 187 152 195 213 219
272 268 268 272 293 274 271 277 268 208 219 220 211 200 195 195 185 182 182 184 184 187 185 185 184 180 180 178 177 179 181 184 184 184 181 186 191 187 195 193 171 201 189 193 188 192 184 209 196
249 256 261 257 258 277 283 278 256 205 220 223 214 205 200 189 179 180 182 182 187 187 187 186 182 181 184 182 181 184 179 183 183 184 179 190 190 190 193 197 193 193 188 195 196 208 227 205 201
243 256 273 290 287 244 272 259 207 186 205 211 212 203 195 189 183 181 185 186 188 187 188 185 184 184 186 181 178 175 168 177 177 183 182 191 192 193 204 194 204 193 206 194 199 201 218 220 205
244 250 270 277 274 271 273 290 220 185 201 206 205 197 193 189 186 183 185 188 190 189 188 184 182 184 185 184 185 182 182 185 188 184 182 185 193 195 196 199 201 205 212 193 207 201 213 226 218
252 268 265 267 268 274 248 273 280 174 220 203 197 197 191 189 185 182 185 187 189 188 188 185 183 186 187 190 190 191 192 190 184 184 178 186 188 195 196 198 200 205 216 207 217 191 223 223 238
231 235 241 246 252 254 263 278 284 182 234 202 189 190 188 184 181 177 179 182 182 184 185 183 183 186 188 191 191 193 192 189 186 187 181 187 186 192 194 198 199 205 211 201 207 207 210 235 248
219 235 237 233 231 248 207 265 290 52 169 243 198 183 181 178 176 175 179 180 180 182 183 183 184 189 188 189 191 191 191 191 193 193 189 191 189 193 193 197 196 202 202 203 205 205 220 214 219
217 235 249 265 268 272 211 256 356 99 135 170 181 176 175 175 176 177 177 179 180 182 182 184 183 185 186 186 188 189 190 194 197 200 198 196 198 198 189 196 197 200 199 201 199 209 207 208 217
220 230 257 267 269 274 263 252 195 151 163 162 164 170 175 176 176 176 174 178 180 184 185 185 184 186 187 188 184 188 192 196 196 196 200 201 199 194 191 196 198 199 199 203 201 214 209 204 218
254 247 235 252 262 266 260 251 262 158 167 161 166 169 168 174 175 176 176 178 180 182 184 186 188 189 187 185 185 187 192 193 195 198 198 200 199 199 195 199 198 199 198 200 208 208 207 211 217
205 221 237 251 261 269 275 286 63 87 140 162 161 168 170 172 174 176 176 175 176 178 180 182 183 184 184 185 185 187 189 192 194 199 199 196 198 196 197 198 199 200 201 202 208 220 206 214 216
242 238 231 242 246 251 271 290 83 94 114 140 153 162 168 169 170 174 174 173 175 175 178 180 179 181 181 181 183 185 190 192 194 198 198 196 196 198 198 199 202 203 203 204 210 218 214 216 218